Torna al catalogo

STARLINK-36931

AttivoComunicazioniVLEO
NORAD 68000·PAYLOAD·🇺🇸 United States

Lanciato Feb 27, 2026 da Vandenberg Space Force Base

Loading…

Prossimi Passaggi (prossime 24 ore)

TLE

AggiornatoSource: CelesTrak SupGP

Epoca: Sep 15, 2026, 04:07 UTC

1 68000C 26039Q   26258.17201389 -.00021372  00000+0 -77390-3 0  2581
2 68000  43.0012  58.3980 0001396 267.7333 221.9888 15.27597037    14

Traccia STARLINK-36931 in tempo reale con AllMySat

Download on the App Store